Weather History for KLGA - May, 2013

Change the Weather History Date:

Tuesday, May 21, 2013

  Actual Average Record
Temperature  
Mean Temperature 77 °F 64 °F  
Max Temperature 86 °F 73 °F 93 °F (1996)
Min Temperature 67 °F 55 °F 45 °F (2002)
Degree Days  
Heating Degree Days 0 3  
Month to date heating degree days 96 110  
Since 1 July heating degree days 4405 4624  
Cooling Degree Days 12 2  
Month to date cooling degree days 31 27  
Year to date cooling degree days 31 35  
Growing Degree Days 26 (Base 50)    
Moisture  
Dew Point 64 °F    
Average Humidity 69    
Maximum Humidity 87    
Minimum Humidity 51    
Precipitation  
Precipitation 0.00 in 0.14 in 1.60 in (1985)
Month to date precipitation 3.76 2.43  
Year to date precipitation 13.18 16.33  
Snow  
Snow 0.00 in 0.00 in - ()
Month to date snowfall T 0.0  
Since 1 July snowfall 22.2 26.9  
Snow Depth 0.00 in    
Sea Level Pressure  
Sea Level Pressure 29.90 in    
Wind  
Wind Speed 8 mph (SSW)    
Max Wind Speed 20 mph    
Max Gust Speed 24 mph    
Visibility 9 miles    
Events      
T = Trace of Precipitation, MM = Missing Value Source: NWS Daily Summary

Daily Weather History Graph

Daily Weather History Graph

Search for Another Location

Airport or City:

Trip Planner

Search our weather history database for the weather conditions in past years. The results will help you decide how hot, cold, wet, or windy it might be!

Date:

Astronomy

May. 21, 2013 Rise Set
Actual Time 5:32 AM EDT 8:11 PM EDT
Civil Twilight 5:01 AM EDT 8:43 PM EDT
Nautical Twilight 4:21 AM EDT 9:23 PM EDT
Astronomical Twilight 3:36 AM EDT 10:08 PM EDT
Moon 4:21 PM EDT (5/21) 3:00 AM EDT (5/21)
Length of Visible Light 15h 42m
Length of Day
14h 38m
Waxing Gibbous, 84% of the Moon is Illuminated
May 21
Waxing Gibbous
May 25
Full
May 31
Last Quarter
Jun 8
New
Jun 16
First Quarter

Hourly Weather History & Observations

Time (EDT) Temp. Heat Index Dew Point Humidity Pressure Visibility Wind Dir Wind Speed Gust Speed Precip Events Conditions
12:51 AM 70.0 °F - 64.0 °F 81% 29.96 in 9.0 mi South 5.8 mph - N/A   Scattered Clouds
1:51 AM 68.0 °F - 64.0 °F 87% 29.97 in 8.0 mi Calm Calm - N/A   Partly Cloudy
2:51 AM 69.1 °F - 63.0 °F 81% 29.95 in 8.0 mi Calm Calm - N/A   Partly Cloudy
3:51 AM 69.1 °F - 64.0 °F 84% 29.93 in 8.0 mi Calm Calm - N/A   Scattered Clouds
4:51 AM 68.0 °F - 63.0 °F 84% 29.94 in 7.0 mi SSW 4.6 mph - N/A   Scattered Clouds
5:51 AM 68.0 °F - 64.0 °F 87% 29.95 in 5.0 mi South 5.8 mph - N/A   Mostly Cloudy
6:51 AM 68.0 °F - 64.0 °F 87% 29.96 in 5.0 mi South 5.8 mph - N/A   Partly Cloudy
7:51 AM 72.0 °F - 64.9 °F 78% 29.96 in 5.0 mi WSW 6.9 mph - N/A   Haze
8:51 AM 73.9 °F - 64.9 °F 73% 29.96 in 6.0 mi SW 9.2 mph - N/A   Haze
9:51 AM 77.0 °F - 66.0 °F 69% 29.95 in 7.0 mi Variable 4.6 mph - N/A   Partly Cloudy
10:51 AM 80.1 °F 81.9 °F 64.9 °F 60% 29.94 in 10.0 mi SW 9.2 mph - N/A   Clear
11:51 AM 82.0 °F 83.8 °F 64.9 °F 56% 29.91 in 10.0 mi SSW 10.4 mph - N/A   Clear
12:51 PM 82.9 °F 84.4 °F 64.0 °F 53% 29.91 in 10.0 mi SW 10.4 mph 18.4 mph N/A   Partly Cloudy
1:51 PM 84.9 °F 86.1 °F 64.0 °F 49% 29.89 in 10.0 mi SW 9.2 mph - N/A   Partly Cloudy
2:23 PM 84.2 °F 86.6 °F 66.2 °F 55% 29.88 in 10.0 mi SSE 15.0 mph - N/A   Partly Cloudy
2:51 PM 82.9 °F 85.0 °F 66.0 °F 56% 29.88 in 10.0 mi SSE 17.3 mph - N/A   Partly Cloudy
3:51 PM 84.0 °F 86.3 °F 66.0 °F 55% 29.86 in 10.0 mi South 18.4 mph 21.9 mph N/A   Partly Cloudy
4:51 PM 84.0 °F 85.8 °F 64.9 °F 53% 29.84 in 10.0 mi SSE 15.0 mph - N/A   Partly Cloudy
5:51 PM 84.9 °F 86.6 °F 64.9 °F 51% 29.83 in 10.0 mi South 13.8 mph 20.7 mph N/A   Scattered Clouds
6:51 PM 84.9 °F 86.1 °F 64.0 °F 49% 29.84 in 10.0 mi SSW 15.0 mph - N/A   Scattered Clouds
7:51 PM 82.9 °F 84.6 °F 64.9 °F 54% 29.85 in 10.0 mi SW 10.4 mph - N/A   Scattered Clouds
8:51 PM 78.1 °F - 63.0 °F 60% 29.86 in 10.0 mi SSE 8.1 mph - N/A   Scattered Clouds
9:51 PM 77.0 °F - 63.0 °F 62% 29.85 in 10.0 mi South 6.9 mph - N/A   Partly Cloudy
10:51 PM 75.9 °F - 64.0 °F 67% 29.85 in 10.0 mi South 6.9 mph - N/A   Mostly Cloudy
11:51 PM 73.9 °F - 63.0 °F 68% 29.85 in 10.0 mi SSE 9.2 mph - N/A   Scattered Clouds